User: anonymous   Login
Location: Unspecified
(0.0000°N, 0.0000°E)
Time: 13:18:46
(UTC+02:00)
Language:

Cosmos 1733 Rocket - Orbit

View from above orbital plane
View from above orbital plane
View from above satellite
View from above satellite

Ground track
Ground track

The orbit data is extracted from the following two-line orbital elements,

1 16612U 86018B   17117.93674387 +.00000115 +00000-0 +10921-4 0  9997
2 16612 082.5168 343.5814 0016735 323.2193 111.7069 14.84143879562907
Epoch (UTC): 27 April 2017 22:28:54
Eccentricity: 0.0016735
inclination: 82.5168°
perigee height: 604 km
apogee height: 628 km
right ascension of ascending node: 343.5814°
argument of perigee: 323.2193°
revolutions per day: 14.84143879
mean anomaly at epoch: 111.7069°
orbit number at epoch: 56290

The dashed part of the orbit path shows where the satellite is in the earth's shadow,  

DLR